Hlavní strana
METAR-TAF:

METAR-TAF

Letiště :

Goldsboro, Severní Karolína, Spojené státy americké

zeměpisná šířka: 35-27-38N, zeměpisná délka: 077-57-54W, výška: 40 m

Aktuální stav počasí

Zpráva byla vytvořena před 20 minutami, v 16:15 UTC
Severozápadní vítr 3 kt
Teplota 31°C
Vlhkost vzduchu 52%
Tlak 1014 hPa
Viditelnost: 16.1 km
Jasno

METAR: KGWW 031615Z AUTO 32003KT 10SM CLR 31/20 A2995 RMK AO2 T03050202

Čas: 12:35 (16:35 UTC)


TAF: chybějící

Stav a předpovědi počasí z více než 4 000 letišť (zprávy METAR a TAF).

Červené a žluté tečky na mapě představují dostupné meteorologické stanice.

Když kurzor umístíte na tečku, zobrazí se název stanice.

Pak kliknutím zobrazíte stav a předpověď počasí.

Chcete-li změnit mapu, kliknutím na zelené tlačítko se znaménkem +mapu přiblížíte, kliknutím na zelené tlačítko se znaménkem – mapu oddálíte a kliknutím na zelené šipky přejdete na sousední mapy.


METAR-TAF: